This is the latest recevied weather packets stored in our database for station/object KI8L. If no packets are shown the sender has not sent any weather packets the latest 10 day(s).
| Time | Temp. | Humidity | Pressure | Rain* | Wind** | Luminosity | Snow |
|---|---|---|---|---|---|---|---|
| 1778059086 | 6.67° C | 99% | 1010.7 hPa | 0 mm | - | 0 W/m² | - |
| 1778058784 | 6.67° C | 99% | 1010.7 hPa | 1.27 mm | - | 0 W/m² | - |
| 1778058482 | 6.67° C | 99% | 1010.7 hPa | 1.27 mm | - | 0 W/m² | - |
| 1778058178 | 7.22° C | 99% | 1010.5 hPa | 1.27 mm | - | 0 W/m² | - |
| 1778057875 | 7.22° C | 99% | 1010.7 hPa | 1.78 mm | - | 0 W/m² | - |
| 1778057571 | 7.22° C | 99% | 1010.5 hPa | 3.56 mm | - | 0 W/m² | - |
| 1778057268 | 6.67° C | 99% | 1010.6 hPa | 1.78 mm | - | 0 W/m² | - |
| 1778056964 | 6.67° C | 99% | 1010.6 hPa | 0 mm | - | 0 W/m² | - |
| 1778056662 | 6.67° C | 99% | 1010.2 hPa | 0 mm | - | 0 W/m² | - |
| 1778056359 | 6.67° C | 99% | 1010.4 hPa | 0 mm | - | 0 W/m² | - |
| 1778056057 | 6.67° C | 99% | 1010.3 hPa | 0 mm | - | 0 W/m² | - |
| 1778055752 | 6.67° C | 99% | 1010.4 hPa | 0 mm | - | 0 W/m² | - |
| 1778055450 | 6.67° C | 99% | 1010.2 hPa | 1.27 mm | - | 0 W/m² | - |
| 1778055147 | 6.67° C | 99% | 1010.4 hPa | 1.27 mm | - | 0 W/m² | - |
| 1778054845 | 6.67° C | 99% | 1010.3 hPa | 0 mm | - | 0 W/m² | - |
| 1778054541 | 6.67° C | 99% | 1010.6 hPa | 1.78 mm | - | 0 W/m² | - |
| 1778054239 | 6.67° C | 99% | 1010.5 hPa | 3.05 mm | - | 0 W/m² | - |
| 1778053936 | 6.67° C | 99% | 1010.5 hPa | 3.05 mm | - | 0 W/m² | - |
| 1778053634 | 6.67° C | 99% | 1010.5 hPa | 3.05 mm | - | 0 W/m² | - |
| 1778053330 | 6.67° C | 99% | 1010.3 hPa | 3.05 mm | - | 0 W/m² | - |
| 1778053028 | 6.67° C | 99% | 1010.2 hPa | 4.83 mm | - | 0 W/m² | - |
| 1778052726 | 6.67° C | 99% | 1010.2 hPa | 4.32 mm | - | 0 W/m² | - |
| 1778052422 | 6.67° C | 99% | 1010.4 hPa | 4.83 mm | - | 0 W/m² | - |
| 1778052120 | 6.67° C | 99% | 1010.3 hPa | 3.05 mm | - | 0 W/m² | - |
| 1778051817 | 6.67° C | 99% | 1010.3 hPa | 3.05 mm | - | 0 W/m² | - |
* Rain latest hour (hover to see other rain measurements)
** Current wind speed in m/s (hover to see current wind gust speed)